When you browse on this site, cookies collect data to enhance your experience and personalize the content and advertising you see.
Visit our Privacy Policy to learn more. By continuing to use the site, you agree to this use of cookies and data.
  • In Deutschland
  • Länderverzeichnis
  • Für 7 Tage
  • Wassertemperatur
  • Satellitenkarten
  • Wetterkarte
  • Widgets
  • user-avatar
    Anmelden

    Stündliche Wetter Valuevka

    Heute, 20 Februar, Mittwoch

    Zeit Temperatur Niederschläge Wind Luftdruck Luftfeuchtigkeit
    00:00 -3°C° 0 mm 1 m/S 758 mmHg 56%
    01:00 -3°C° 0 mm 1 m/S 758 mmHg 54%
    02:00 -3°C° 0 mm 1 m/S 758 mmHg 52%
    03:00 -5°C° 0 mm 2 m/S 757 mmHg 51%
    04:00 -5°C° 0 mm 2 m/S 757 mmHg 50%
    05:00 -5°C° 0 mm 2 m/S 757 mmHg 49%
    06:00 -5°C° 0 mm 2 m/S 757 mmHg 49%
    07:00 -4°C° 0 mm 2 m/S 757 mmHg 45%
    08:00 -4°C° 0 mm 3 m/S 756 mmHg 42%
    09:00 -4°C° 0 mm 3 m/S 756 mmHg 38%
    10:00 -1°C° 0 mm 3 m/S 756 mmHg 34%
    11:00 +1°C° 0 mm 3 m/S 756 mmHg 30%
    12:00 +2°C° 0 mm 3 m/S 756 mmHg 26%
    13:00 +3°C° 0 mm 4 m/S 755 mmHg 27%
    14:00 +3°C° 0 mm 4 m/S 755 mmHg 28%
    15:00 +4°C° 0 mm 4 m/S 754 mmHg 29%
    16:00 +3°C° 0 mm 4 m/S 754 mmHg 35%
    17:00 0°C° 0 mm 4 m/S 754 mmHg 41%
    18:00 0°C° 0 mm 3 m/S 753 mmHg 47%
    19:00 -1°C° 0 mm 4 m/S 753 mmHg 49%
    20:00 -2°C° 0 mm 4 m/S 753 mmHg 51%
    21:00 -2°C° 0 mm 4 m/S 753 mmHg 52%
    22:00 -2°C° 0 mm 4 m/S 752 mmHg 54%
    23:00 -2°C° 0 mm 4 m/S 752 mmHg 55%

    Morgen, 21 Februar, Donnerstag

    Zeit Temperatur Niederschläge Wind Luftdruck Luftfeuchtigkeit
    00:00 -3°C° 0 mm 4 m/S 752 mmHg 56%
    01:00 -3°C° 0 mm 4 m/S 752 mmHg 57%
    02:00 -2°C° 0 mm 4 m/S 752 mmHg 57%
    03:00 -2°C° 0 mm 4 m/S 751 mmHg 58%
    04:00 -2°C° 0 mm 4 m/S 751 mmHg 60%
    05:00 -2°C° 0 mm 4 m/S 751 mmHg 62%
    06:00 -2°C° 0 mm 4 m/S 750 mmHg 64%
    07:00 -1°C° 0 mm 5 m/S 750 mmHg 65%
    08:00 0°C° 0 mm 5 m/S 750 mmHg 66%
    09:00 +1°C° 0 mm 6 m/S 750 mmHg 67%
    10:00 +3°C° 0 mm 6 m/S 750 mmHg 62%
    11:00 +4°C° 0 mm 7 m/S 749 mmHg 58%
    12:00 +5°C° 0 mm 8 m/S 749 mmHg 53%
    13:00 +6°C° 0 mm 8 m/S 748 mmHg 52%
    14:00 +6°C° 0 mm 8 m/S 748 mmHg 51%
    15:00 +6°C° 0 mm 8 m/S 747 mmHg 50%
    16:00 +5°C° 0.3 mm 7 m/S 747 mmHg 61%
    17:00 +4°C° 0.3 mm 7 m/S 747 mmHg 71%
    18:00 +3°C° 0.3 mm 6 m/S 746 mmHg 82%
    19:00 +3°C° 0.2 mm 6 m/S 746 mmHg 78%
    20:00 +2°C° 0.2 mm 6 m/S 746 mmHg 74%
    21:00 +2°C° 0.2 mm 7 m/S 746 mmHg 70%
    22:00 0°C° 0.1 mm 7 m/S 746 mmHg 73%
    23:00 -2°C° 0.1 mm 8 m/S 747 mmHg 77%

    übermorgen, 22 Februar, Freitag

    Zeit Temperatur Niederschläge Wind Luftdruck Luftfeuchtigkeit
    00:00 -4°C° 0.1 mm 8 m/S 747 mmHg 81%
    01:00 -5°C° 0 mm 8 m/S 747 mmHg 75%
    02:00 -6°C° 0 mm 7 m/S 748 mmHg 69%
    03:00 -6°C° 0 mm 6 m/S 748 mmHg 63%
    04:00 -7°C° 0 mm 7 m/S 748 mmHg 63%
    05:00 -7°C° 0 mm 7 m/S 749 mmHg 63%
    06:00 -7°C° 0 mm 7 m/S 749 mmHg 63%
    07:00 -6°C° 0 mm 8 m/S 749 mmHg 59%
    08:00 -6°C° 0 mm 8 m/S 750 mmHg 56%
    09:00 -5°C° 0 mm 8 m/S 750 mmHg 52%
    10:00 -5°C° 0 mm 8 m/S 750 mmHg 50%
    11:00 -4°C° 0 mm 8 m/S 750 mmHg 47%
    12:00 -2°C° 0 mm 8 m/S 750 mmHg 45%
    13:00 -2°C° 0 mm 7 m/S 750 mmHg 46%
    14:00 -1°C° 0 mm 7 m/S 750 mmHg 46%
    15:00 -1°C° 0 mm 7 m/S 750 mmHg 47%
    16:00 -1°C° 0 mm 5 m/S 750 mmHg 51%
    17:00 -2°C° 0 mm 4 m/S 750 mmHg 56%
    18:00 -1°C° 0 mm 2 m/S 750 mmHg 60%
    19:00 -1°C° 0 mm 2 m/S 750 mmHg 61%
    20:00 +1°C° 0 mm 1 m/S 750 mmHg 62%
    21:00 +1°C° 0 mm 1 m/S 750 mmHg 63%
    22:00 +1°C° 0.1 mm 1 m/S 750 mmHg 65%
    23:00 -1°C° 0.1 mm 2 m/S 750 mmHg 67%

    23 Februar, Samstag

    Zeit Temperatur Niederschläge Wind Luftdruck Luftfeuchtigkeit
    00:00 -1°C° 0.1 mm 3 m/S 750 mmHg 69%
    01:00 -1°C° 0.1 mm 3 m/S 750 mmHg 70%
    02:00 -2°C° 0.1 mm 4 m/S 750 mmHg 71%
    03:00 -1°C° 0.1 mm 4 m/S 750 mmHg 72%
    04:00 -1°C° 0.3 mm 4 m/S 750 mmHg 74%
    05:00 0°C° 0.3 mm 3 m/S 750 mmHg 76%
    06:00 0°C° 0.3 mm 3 m/S 750 mmHg 78%
    07:00 +1°C° 0.2 mm 3 m/S 750 mmHg 79%
    08:00 +1°C° 0.2 mm 3 m/S 751 mmHg 81%
    09:00 0°C° 0.2 mm 4 m/S 751 mmHg 82%
    10:00 +1°C° 0 mm 5 m/S 751 mmHg 79%
    11:00 +2°C° 0 mm 5 m/S 751 mmHg 75%
    12:00 +4°C° 0 mm 6 m/S 751 mmHg 71%
    13:00 +5°C° 0 mm 5 m/S 751 mmHg 71%
    14:00 +5°C° 0 mm 4 m/S 751 mmHg 70%
    15:00 +5°C° 0 mm 3 m/S 751 mmHg 70%
    16:00 +5°C° 0 mm 4 m/S 751 mmHg 70%
    17:00 +4°C° 0 mm 4 m/S 751 mmHg 70%
    18:00 +4°C° 0 mm 4 m/S 752 mmHg 70%
    19:00 +3°C° 0 mm 4 m/S 752 mmHg 69%
    20:00 +3°C° 0 mm 4 m/S 753 mmHg 68%
    21:00 +1°C° 0 mm 5 m/S 753 mmHg 67%
    22:00 +1°C° 0.1 mm 4 m/S 753 mmHg 70%
    23:00 0°C° 0.1 mm 4 m/S 753 mmHg 72%

    24 Februar, Sonntag

    Zeit Temperatur Niederschläge Wind Luftdruck Luftfeuchtigkeit
    00:00 +1°C° 0.1 mm 3 m/S 754 mmHg 75%
    01:00 0°C° 0 mm 3 m/S 754 mmHg 77%
    02:00 0°C° 0 mm 3 m/S 754 mmHg 79%
    03:00 -1°C° 0 mm 2 m/S 754 mmHg 81%
    04:00 -1°C° 0 mm 2 m/S 754 mmHg 82%
    05:00 -1°C° 0 mm 2 m/S 754 mmHg 82%
    06:00 -1°C° 0 mm 2 m/S 754 mmHg 83%
    07:00 -1°C° 0 mm 2 m/S 754 mmHg 80%
    08:00 +1°C° 0 mm 2 m/S 755 mmHg 77%
    09:00 +2°C° 0 mm 2 m/S 755 mmHg 74%
    10:00 +3°C° 0 mm 2 m/S 755 mmHg 71%
    11:00 +4°C° 0 mm 2 m/S 755 mmHg 68%
    12:00 +5°C° 0 mm 2 m/S 755 mmHg 65%
    13:00 +6°C° 0 mm 2 m/S 755 mmHg 63%
    14:00 +6°C° 0 mm 2 m/S 755 mmHg 61%
    15:00 +7°C° 0 mm 2 m/S 755 mmHg 60%
    16:00 +6°C° 0 mm 2 m/S 755 mmHg 64%
    17:00 +4°C° 0 mm 3 m/S 755 mmHg 68%
    18:00 +3°C° 0 mm 3 m/S 755 mmHg 73%
    19:00 +3°C° 0 mm 3 m/S 755 mmHg 74%
    20:00 +3°C° 0 mm 3 m/S 755 mmHg 76%
    21:00 +2°C° 0 mm 3 m/S 755 mmHg 77%
    22:00 +2°C° 0 mm 3 m/S 755 mmHg 79%
    23:00 +1°C° 0 mm 3 m/S 755 mmHg 81%

    25 Februar, Montag

    Zeit Temperatur Niederschläge Wind Luftdruck Luftfeuchtigkeit
    00:00 +1°C° 0 mm 3 m/S 755 mmHg 83%
    01:00 0°C° 0 mm 3 m/S 755 mmHg 84%
    02:00 0°C° 0 mm 3 m/S 755 mmHg 85%
    03:00 0°C° 0 mm 3 m/S 755 mmHg 86%
    04:00 0°C° 0 mm 3 m/S 755 mmHg 87%
    05:00 -1°C° 0 mm 3 m/S 755 mmHg 88%
    06:00 -1°C° 0 mm 3 m/S 755 mmHg 89%
    07:00 0°C° 0 mm 3 m/S 755 mmHg 87%
    08:00 0°C° 0 mm 3 m/S 755 mmHg 85%
    09:00 0°C° 0 mm 3 m/S 755 mmHg 84%
    10:00 +2°C° 0 mm 3 m/S 755 mmHg 78%
    11:00 +3°C° 0 mm 3 m/S 755 mmHg 73%
    12:00 +4°C° 0 mm 3 m/S 755 mmHg 68%
    13:00 +5°C° 0 mm 3 m/S 754 mmHg 66%
    14:00 +5°C° 0 mm 3 m/S 754 mmHg 65%
    15:00 +5°C° 0 mm 3 m/S 754 mmHg 64%
    16:00 +4°C° 0 mm 3 m/S 753 mmHg 69%
    17:00 +3°C° 0 mm 3 m/S 753 mmHg 74%
    18:00 +2°C° 0 mm 3 m/S 753 mmHg 79%
    19:00 +2°C° 0 mm 3 m/S 753 mmHg 81%
    20:00 +1°C° 0 mm 3 m/S 752 mmHg 83%
    21:00 0°C° 0 mm 4 m/S 752 mmHg 85%
    22:00 +1°C° 0 mm 3 m/S 751 mmHg 86%
    23:00 0°C° 0 mm 3 m/S 751 mmHg 88%
    Mehr zeigen